DAH2062 DAAG-EBBR

Flight info

Callsign DAH2062
Flight time 2h 20m
Altitude 34000
Route SADAF1C SADAF DCT SURIB DCT INSUB DCT RONDU N856 EBROX DCT LATRO DCT OLOXO DCT OKABI DCT TOU DCT ADABI DCT BOKNO UN858 VANAD UN874 BAMES UT191 PODEM UN873 BAZOS DCT BELDI DCT VEKIN Z173 ARVOL
Aircraft B38M/M-SDE2E3FGHIRWXY/LB1

Departure

Time 2026-05-03 20:33
Airport Houari Boumediene Airport (DAAG)

Arrival

Time 2026-05-03 22:53
Airport Brussels Airport (EBBR)
Time Latitude Longitude Altitude Speed Heading
2026-05-03 20:15 36.69515 3.20491 72 ft 0 kts 181°
2026-05-03 20:24 36.69513 3.20491 72 ft 0 kts 178°
2026-05-03 20:24 36.69512 3.20494 72 ft 0 kts 132°
2026-05-03 20:24 36.69512 3.20496 72 ft 0 kts 101°
2026-05-03 20:24 36.69516 3.20498 64 ft 0 kts 29°
2026-05-03 20:25 36.69542 3.20498 68 ft 11 kts
2026-05-03 20:25 36.69588 3.20509 72 ft 0 kts 34°
2026-05-03 20:26 36.69591 3.20512 72 ft 2 kts 37°
2026-05-03 20:26 36.69603 3.20532 65 ft 5 kts 58°
2026-05-03 20:26 36.69616 3.20583 70 ft 8 kts 84°
2026-05-03 20:26 36.69607 3.20665 63 ft 12 kts 98°
2026-05-03 20:27 36.69597 3.20759 72 ft 9 kts 95°
2026-05-03 20:27 36.69605 3.20846 72 ft 11 kts 77°
2026-05-03 20:27 36.69618 3.20946 72 ft 12 kts 97°
2026-05-03 20:27 36.69563 3.21019 65 ft 13 kts 153°
2026-05-03 20:28 36.69478 3.21063 67 ft 14 kts 157°
2026-05-03 20:28 36.69394 3.21128 69 ft 15 kts 118°
2026-05-03 20:28 36.69383 3.21257 72 ft 16 kts 88°
2026-05-03 20:28 36.69389 3.21400 72 ft 17 kts 89°
2026-05-03 20:29 36.69381 3.21522 72 ft 11 kts 102°
2026-05-03 20:29 36.69383 3.21621 68 ft 12 kts 84°
2026-05-03 20:29 36.69385 3.21728 71 ft 12 kts 106°
2026-05-03 20:29 36.69379 3.21836 64 ft 13 kts 88°
2026-05-03 20:30 36.69380 3.21939 77 ft 9 kts 89°
2026-05-03 20:30 36.69381 3.21945 77 ft 0 kts 88°
2026-05-03 20:32 36.69381 3.21946 77 ft 1 kts 87°
2026-05-03 20:32 36.69385 3.21990 82 ft 6 kts 77°
2026-05-03 20:32 36.69405 3.22049 83 ft 19 kts 59°
2026-05-03 20:33 36.69667 3.22473 70 ft 105 kts 54°
2026-05-03 20:33 36.70262 3.23449 118 ft 172 kts 52°
2026-05-03 20:33 36.71041 3.24766 493 ft 207 kts 51°
2026-05-03 20:33 36.72038 3.26026 1445 ft 199 kts 29°
2026-05-03 20:34 36.73356 3.26377 2263 ft 200 kts 350°
2026-05-03 20:34 36.74640 3.25626 2619 ft 212 kts 310°
2026-05-03 20:34 36.75371 3.24046 2710 ft 217 kts 287°
2026-05-03 20:34 36.76062 3.22273 2851 ft 237 kts 295°
2026-05-03 20:35 36.76904 3.20407 2943 ft 256 kts 295°
2026-05-03 20:35 36.77803 3.18450 3012 ft 264 kts 300°
2026-05-03 20:35 36.79124 3.16809 3099 ft 274 kts 324°
2026-05-03 20:35 36.80747 3.15585 3263 ft 277 kts 325°
2026-05-03 20:36 36.82386 3.14300 3413 ft 278 kts 324°
2026-05-03 20:36 36.84018 3.12997 3561 ft 279 kts 323°
2026-05-03 20:36 36.85654 3.11678 3713 ft 280 kts 323°
2026-05-03 20:36 36.87287 3.10351 3864 ft 281 kts 323°
2026-05-03 20:37 36.88922 3.09016 3976 ft 281 kts 322°
2026-05-03 20:37 36.90562 3.07674 4015 ft 281 kts 323°
2026-05-03 20:37 36.92192 3.06336 4023 ft 281 kts 322°
2026-05-03 20:37 36.93824 3.04995 4029 ft 280 kts 323°
2026-05-03 20:38 36.95454 3.03653 4466 ft 278 kts 322°
2026-05-03 20:38 36.97070 3.02328 5554 ft 280 kts 321°
2026-05-03 20:38 36.98707 3.00978 6581 ft 283 kts 321°
2026-05-03 20:38 37.00358 2.99619 7580 ft 285 kts 321°
2026-05-03 20:39 37.01997 2.98269 8581 ft 286 kts 320°
2026-05-03 20:39 37.03657 2.96901 9606 ft 287 kts 320°
2026-05-03 20:39 37.05334 2.95518 10456 ft 293 kts 320°
2026-05-03 20:39 37.07089 2.94064 10907 ft 312 kts 320°
2026-05-03 20:40 37.08961 2.92511 11268 ft 333 kts 320°
2026-05-03 20:40 37.10938 2.90875 11721 ft 347 kts 321°
2026-05-03 20:40 37.12967 2.89199 12443 ft 351 kts 321°
2026-05-03 20:40 37.14991 2.87527 13238 ft 354 kts 321°
2026-05-03 20:41 37.17060 2.85815 13997 ft 357 kts 321°
2026-05-03 20:41 37.19142 2.84092 14672 ft 360 kts 321°
2026-05-03 20:41 37.21241 2.82352 15327 ft 363 kts 321°
2026-05-03 20:41 37.23363 2.80593 15949 ft 367 kts 321°
2026-05-03 20:42 37.25512 2.78811 16578 ft 371 kts 321°
2026-05-03 20:42 37.27651 2.77034 17187 ft 374 kts 321°
2026-05-03 20:42 37.29829 2.75226 17786 ft 377 kts 321°
2026-05-03 20:42 37.32028 2.73398 18379 ft 380 kts 321°
2026-05-03 20:43 37.34243 2.71555 18895 ft 383 kts 321°
2026-05-03 20:43 37.36472 2.69699 19419 ft 386 kts 321°
2026-05-03 20:43 37.38719 2.67827 19940 ft 388 kts 321°
2026-05-03 20:43 37.40981 2.65940 20450 ft 391 kts 321°
2026-05-03 20:44 37.43268 2.64032 20932 ft 395 kts 321°
2026-05-03 20:44 37.45563 2.62116 21457 ft 397 kts 321°
2026-05-03 20:44 37.47874 2.60185 21915 ft 401 kts 321°
2026-05-03 20:44 37.50209 2.58233 22433 ft 403 kts 321°
2026-05-03 20:45 37.52526 2.56293 22922 ft 406 kts 321°
2026-05-03 20:45 37.54885 2.54318 23432 ft 409 kts 321°
2026-05-03 20:45 37.57259 2.52329 23875 ft 411 kts 321°
2026-05-03 20:45 37.59649 2.50324 24326 ft 413 kts 321°
2026-05-03 20:46 37.62047 2.48310 24775 ft 415 kts 320°
2026-05-03 20:46 37.64459 2.46285 25215 ft 417 kts 320°
2026-05-03 20:46 37.66872 2.44256 25648 ft 418 kts 320°
2026-05-03 20:46 37.69300 2.42213 26092 ft 420 kts 320°
2026-05-03 20:47 37.71745 2.40152 26426 ft 425 kts 320°
2026-05-03 20:47 37.74213 2.38074 26819 ft 427 kts 320°
2026-05-03 20:47 37.76686 2.35988 27243 ft 428 kts 320°
2026-05-03 20:47 37.79134 2.33922 27638 ft 430 kts 320°
2026-05-03 20:48 37.81695 2.31931 28034 ft 434 kts 323°
2026-05-03 20:48 37.84302 2.29975 28440 ft 436 kts 322°
2026-05-03 20:48 37.86909 2.28001 28817 ft 438 kts 322°
2026-05-03 20:48 37.89535 2.26003 29160 ft 440 kts 322°
2026-05-03 20:49 37.92165 2.23998 29547 ft 442 kts 322°
2026-05-03 20:49 37.94804 2.21983 29908 ft 444 kts 322°
2026-05-03 20:49 37.97460 2.19955 30214 ft 446 kts 321°
2026-05-03 20:49 38.00118 2.17923 30600 ft 446 kts 321°
2026-05-03 20:50 38.02765 2.15897 31047 ft 443 kts 321°
2026-05-03 20:50 38.05406 2.13874 31492 ft 441 kts 321°
2026-05-03 20:50 38.07999 2.11886 31939 ft 440 kts 321°
2026-05-03 20:50 38.10614 2.09880 32371 ft 438 kts 321°
2026-05-03 20:51 38.13217 2.07881 32805 ft 436 kts 321°
2026-05-03 20:51 38.15807 2.05891 33240 ft 434 kts 321°
2026-05-03 20:51 38.18382 2.03912 33687 ft 433 kts 321°
2026-05-03 20:51 38.20962 2.01925 33902 ft 436 kts 321°
2026-05-03 20:52 38.23566 1.99919 34020 ft 437 kts 321°
2026-05-03 20:52 38.28719 1.95944 34003 ft 434 kts 321°
2026-05-03 20:53 38.33897 1.91945 34008 ft 435 kts 321°
2026-05-03 20:53 38.38213 1.88612 34014 ft 434 kts 321°
2026-05-03 20:54 38.43377 1.84619 34010 ft 434 kts 321°
2026-05-03 20:54 38.51092 1.78639 34004 ft 434 kts 321°
2026-05-03 20:55 38.56256 1.74630 34003 ft 434 kts 321°
2026-05-03 20:55 38.61426 1.70608 34004 ft 434 kts 321°
2026-05-03 20:56 38.66590 1.66585 34013 ft 435 kts 321°
2026-05-03 20:56 38.71760 1.62550 34008 ft 435 kts 321°
2026-05-03 20:57 38.76897 1.58534 33999 ft 435 kts 321°
2026-05-03 20:57 38.82069 1.54484 33995 ft 435 kts 321°
2026-05-03 20:58 38.87227 1.50436 34010 ft 433 kts 320°
2026-05-03 20:58 38.92673 1.47101 33959 ft 452 kts 340°
2026-05-03 20:59 38.99025 1.46098 33978 ft 462 kts 345°
2026-05-03 20:59 39.05415 1.45232 33990 ft 462 kts 345°
2026-05-03 21:00 39.10736 1.44534 33991 ft 462 kts 345°
2026-05-03 21:00 39.18189 1.43565 34001 ft 464 kts 346°
2026-05-03 21:01 39.24630 1.42725 33992 ft 464 kts 346°
2026-05-03 21:01 39.31048 1.41887 33990 ft 464 kts 346°
2026-05-03 21:02 39.37452 1.41048 33997 ft 466 kts 346°
2026-05-03 21:02 39.43924 1.40198 33998 ft 467 kts 346°
2026-05-03 21:03 39.50396 1.39346 33999 ft 467 kts 346°
2026-05-03 21:03 39.56819 1.38498 33999 ft 467 kts 346°
2026-05-03 21:04 39.63297 1.37642 34001 ft 467 kts 346°
2026-05-03 21:04 39.69776 1.36784 34002 ft 467 kts 346°
2026-05-03 21:05 39.76253 1.35924 33999 ft 467 kts 346°
2026-05-03 21:05 39.82693 1.35066 34012 ft 468 kts 347°
2026-05-03 21:06 39.89221 1.34198 34004 ft 469 kts 347°
2026-05-03 21:06 39.95692 1.33335 34001 ft 469 kts 347°
2026-05-03 21:07 40.02195 1.32465 34001 ft 469 kts 347°
2026-05-03 21:07 40.08728 1.31589 34007 ft 473 kts 349°
2026-05-03 21:08 40.15245 1.30715 34002 ft 473 kts 348°
2026-05-03 21:08 40.21792 1.29835 34003 ft 473 kts 348°
2026-05-03 21:09 40.28343 1.28952 34010 ft 474 kts 349°
2026-05-03 21:09 40.34911 1.28065 34005 ft 474 kts 349°
2026-05-03 21:10 40.41483 1.27175 34007 ft 474 kts 349°
2026-05-03 21:10 40.48024 1.26288 34020 ft 474 kts 349°
2026-05-03 21:11 40.54589 1.25397 34006 ft 473 kts 349°
2026-05-03 21:11 40.61155 1.24503 34007 ft 473 kts 349°
2026-05-03 21:12 40.67684 1.23612 34007 ft 473 kts 349°
2026-05-03 21:12 40.70996 1.23526 33980 ft 480 kts
2026-05-03 21:12 40.74273 1.24477 34027 ft 484 kts 11°
2026-05-03 21:13 40.80808 1.26744 34006 ft 485 kts 11°
2026-05-03 21:13 40.87297 1.29065 34010 ft 485 kts 12°
2026-05-03 21:14 40.93838 1.31418 34022 ft 487 kts 12°
2026-05-03 21:14 41.00388 1.33780 34023 ft 487 kts 12°
2026-05-03 21:15 41.06892 1.36130 34022 ft 487 kts 12°
2026-05-03 21:15 41.13438 1.38500 34016 ft 487 kts 12°
2026-05-03 21:16 41.20006 1.40882 34027 ft 489 kts 12°
2026-05-03 21:16 41.26544 1.43259 34019 ft 489 kts 12°
2026-05-03 21:17 41.31996 1.45245 34023 ft 489 kts 12°
2026-05-03 21:17 41.39690 1.48053 34027 ft 491 kts 12°
2026-05-03 21:18 41.46261 1.50456 34028 ft 492 kts 12°
2026-05-03 21:18 41.52867 1.52878 34006 ft 491 kts 12°
2026-05-03 21:19 41.59469 1.55303 34027 ft 491 kts 12°
2026-05-03 21:19 41.66029 1.57719 34035 ft 491 kts 12°
2026-05-03 21:20 41.72647 1.60159 34040 ft 491 kts 12°
2026-05-03 21:20 41.79267 1.61307 34031 ft 480 kts 350°
2026-05-03 21:21 41.85956 1.60392 34028 ft 483 kts 349°
2026-05-03 21:21 41.92609 1.59388 34016 ft 483 kts 349°
2026-05-03 21:22 41.99298 1.58333 34028 ft 482 kts 349°
2026-05-03 21:22 42.05959 1.57276 34027 ft 483 kts 349°
2026-05-03 21:23 42.12646 1.56212 34031 ft 483 kts 349°
2026-05-03 21:23 42.19286 1.55154 34049 ft 483 kts 349°
2026-05-03 21:24 42.25974 1.54087 34065 ft 484 kts 349°
2026-05-03 21:24 42.32666 1.53016 34040 ft 483 kts 349°
2026-05-03 21:25 42.39312 1.51950 34042 ft 484 kts 349°
2026-05-03 21:25 42.46016 1.50873 34024 ft 484 kts 349°
2026-05-03 21:26 42.52705 1.49796 34009 ft 484 kts 349°
2026-05-03 21:26 42.59359 1.48722 34047 ft 485 kts 349°
2026-05-03 21:27 42.66082 1.47644 34006 ft 484 kts 349°
2026-05-03 21:27 42.72748 1.46572 33999 ft 485 kts 349°
2026-05-03 21:28 42.79458 1.45491 33967 ft 485 kts 349°
2026-05-03 21:28 42.86179 1.44402 33970 ft 485 kts 349°
2026-05-03 21:29 42.92851 1.43325 33973 ft 485 kts 349°
2026-05-03 21:29 42.99563 1.42234 33983 ft 485 kts 349°
2026-05-03 21:30 43.06267 1.41145 33971 ft 485 kts 349°
2026-05-03 21:30 43.12927 1.40052 33970 ft 485 kts 348°
2026-05-03 21:31 43.19645 1.38957 33969 ft 485 kts 348°
2026-05-03 21:31 43.26359 1.37857 33972 ft 486 kts 348°
2026-05-03 21:32 43.33047 1.36759 33967 ft 486 kts 348°
2026-05-03 21:32 43.39774 1.35653 33970 ft 486 kts 348°
2026-05-03 21:33 43.46476 1.34549 33977 ft 487 kts 348°
2026-05-03 21:33 43.53178 1.33442 33974 ft 487 kts 348°
2026-05-03 21:34 43.59928 1.32326 33993 ft 488 kts 348°
2026-05-03 21:34 43.66683 1.31204 33994 ft 487 kts 347°
2026-05-03 21:35 43.73252 1.29484 33993 ft 484 kts 344°
2026-05-03 21:35 43.79890 1.27774 33986 ft 484 kts 344°
2026-05-03 21:36 43.86489 1.26074 33988 ft 483 kts 343°
2026-05-03 21:36 43.93096 1.24367 33978 ft 483 kts 343°
2026-05-03 21:37 43.99706 1.22655 33978 ft 483 kts 343°
2026-05-03 21:37 44.06272 1.20951 33979 ft 483 kts 343°
2026-05-03 21:38 44.12890 1.19230 33977 ft 483 kts 343°
2026-05-03 21:38 44.19506 1.17505 33975 ft 483 kts 343°
2026-05-03 21:39 44.26130 1.15773 33981 ft 484 kts 343°
2026-05-03 21:39 44.32719 1.14047 33985 ft 486 kts 343°
2026-05-03 21:40 44.39406 1.12292 33981 ft 489 kts 343°
2026-05-03 21:40 44.46095 1.10533 33988 ft 487 kts 343°
2026-05-03 21:41 44.52724 1.08785 33986 ft 487 kts 343°
2026-05-03 21:41 44.59400 1.07019 33990 ft 487 kts 343°
2026-05-03 21:42 44.66078 1.05250 33982 ft 487 kts 343°
2026-05-03 21:42 44.72713 1.03488 34003 ft 487 kts 343°
2026-05-03 21:43 44.79353 1.01721 33992 ft 487 kts 343°
2026-05-03 21:43 44.86043 0.99935 33989 ft 487 kts 343°
2026-05-03 21:44 44.91584 0.98454 34001 ft 487 kts 343°
2026-05-03 21:44 44.98273 0.96661 33995 ft 487 kts 343°
2026-05-03 21:45 45.04896 0.94882 33993 ft 488 kts 343°
2026-05-03 21:45 45.11595 0.93078 33995 ft 489 kts 343°
2026-05-03 21:46 45.18243 0.91284 33996 ft 489 kts 343°
2026-05-03 21:46 45.24924 0.89475 33999 ft 490 kts 343°
2026-05-03 21:47 45.31627 0.87658 34000 ft 490 kts 343°
2026-05-03 21:47 45.38337 0.85834 34007 ft 490 kts 343°
2026-05-03 21:48 45.44990 0.84021 33998 ft 489 kts 343°
2026-05-03 21:48 45.51674 0.82195 33999 ft 489 kts 343°
2026-05-03 21:49 45.58366 0.80363 34013 ft 489 kts 343°
2026-05-03 21:49 45.65029 0.78533 34008 ft 490 kts 343°
2026-05-03 21:50 45.71752 0.76682 34000 ft 493 kts 343°
2026-05-03 21:50 45.78484 0.74826 34006 ft 493 kts 343°
2026-05-03 21:51 45.85224 0.72962 33998 ft 495 kts 343°
2026-05-03 21:51 45.92005 0.71083 33991 ft 495 kts 343°
2026-05-03 21:52 45.98748 0.69208 34003 ft 496 kts 342°
2026-05-03 21:52 46.05538 0.67317 33988 ft 497 kts 342°
2026-05-03 21:53 46.12328 0.65422 33990 ft 496 kts 342°
2026-05-03 21:53 46.19075 0.63531 33990 ft 496 kts 342°
2026-05-03 21:54 46.25855 0.61629 33981 ft 496 kts 342°
2026-05-03 21:54 46.32645 0.59719 33978 ft 496 kts 342°
2026-05-03 21:55 46.39438 0.57804 33976 ft 496 kts 342°
2026-05-03 21:55 46.46186 0.55896 33969 ft 496 kts 342°
2026-05-03 21:56 46.52970 0.53978 33964 ft 497 kts 343°
2026-05-03 21:56 46.56455 0.53537 33933 ft 507 kts 358°
2026-05-03 21:56 46.59966 0.54344 33993 ft 513 kts
2026-05-03 21:57 46.66900 0.56620 33957 ft 513 kts
2026-05-03 21:57 46.73875 0.58921 33964 ft 513 kts
2026-05-03 21:58 46.80811 0.61215 33962 ft 513 kts
2026-05-03 21:58 46.87778 0.63524 33961 ft 513 kts
2026-05-03 21:59 46.94752 0.65843 33962 ft 513 kts
2026-05-03 21:59 47.01665 0.68147 33967 ft 512 kts
2026-05-03 22:00 47.08683 0.69477 33957 ft 507 kts 359°
2026-05-03 22:00 47.15697 0.70290 33969 ft 508 kts 359°
2026-05-03 22:01 47.22738 0.71039 33968 ft 509 kts 359°
2026-05-03 22:01 47.29822 0.71778 33968 ft 509 kts 359°
2026-05-03 22:02 47.36894 0.72520 33964 ft 509 kts 359°
2026-05-03 22:02 47.43937 0.73260 33968 ft 511 kts 359°
2026-05-03 22:03 47.51013 0.74515 33932 ft 518 kts 14°
2026-05-03 22:03 47.57861 0.77931 33929 ft 519 kts 15°
2026-05-03 22:04 47.64687 0.81291 33968 ft 521 kts 15°
2026-05-03 22:04 47.71566 0.84687 33936 ft 520 kts 14°
2026-05-03 22:05 47.78421 0.88082 33962 ft 521 kts 14°
2026-05-03 22:05 47.85297 0.91514 33962 ft 522 kts 15°
2026-05-03 22:06 47.92179 0.94992 33965 ft 522 kts 15°
2026-05-03 22:06 47.99052 0.98467 33962 ft 522 kts 15°
2026-05-03 22:07 48.05897 1.01939 33959 ft 523 kts 15°
2026-05-03 22:07 48.12795 1.05449 33962 ft 523 kts 15°
2026-05-03 22:08 48.19678 1.08961 33961 ft 523 kts 15°
2026-05-03 22:08 48.26582 1.12474 33965 ft 524 kts 15°
2026-05-03 22:09 48.33455 1.15983 33965 ft 525 kts 15°
2026-05-03 22:10 48.43818 1.21295 33977 ft 525 kts 17°
2026-05-03 22:10 48.50746 1.24859 33958 ft 525 kts 16°
2026-05-03 22:11 48.57641 1.28359 33957 ft 525 kts 15°
2026-05-03 22:11 48.64569 1.31849 33962 ft 524 kts 15°
2026-05-03 22:12 48.71501 1.35356 33961 ft 525 kts 15°
2026-05-03 22:12 48.78441 1.38876 33956 ft 525 kts 15°
2026-05-03 22:13 48.85368 1.42399 33958 ft 525 kts 15°
2026-05-03 22:13 48.92298 1.45934 33962 ft 525 kts 15°
2026-05-03 22:14 48.99291 1.49027 33956 ft 518 kts
2026-05-03 22:14 49.06431 1.50668 33960 ft 520 kts
2026-05-03 22:15 49.13580 1.52354 33955 ft 519 kts
2026-05-03 22:15 49.20683 1.54021 33954 ft 520 kts
2026-05-03 22:15 49.24206 1.55327 33959 ft 524 kts 17°
2026-05-03 22:16 49.27485 1.57778 33930 ft 527 kts 34°
2026-05-03 22:16 49.30286 1.61377 33986 ft 526 kts 45°
2026-05-03 22:16 49.32945 1.65250 33939 ft 527 kts 44°
2026-05-03 22:17 49.38254 1.72989 33962 ft 527 kts 44°
2026-05-03 22:17 49.43553 1.80766 33918 ft 527 kts 44°
2026-05-03 22:18 49.48856 1.88593 33967 ft 529 kts 45°
2026-05-03 22:18 49.54152 1.96404 33972 ft 527 kts 44°
2026-05-03 22:19 49.59427 2.04221 33964 ft 526 kts 45°
2026-05-03 22:19 49.64698 2.12060 33967 ft 526 kts 45°
2026-05-03 22:20 49.69972 2.19921 33961 ft 526 kts 45°
2026-05-03 22:20 49.75228 2.27791 33931 ft 525 kts 44°
2026-05-03 22:21 49.80429 2.35596 33946 ft 524 kts 44°
2026-05-03 22:21 49.85665 2.43481 33943 ft 524 kts 44°
2026-05-03 22:22 49.90881 2.51360 33943 ft 524 kts 44°
2026-05-03 22:22 49.96101 2.59271 33942 ft 524 kts 45°
2026-05-03 22:22 49.98700 2.63222 33417 ft 523 kts 45°
2026-05-03 22:23 50.01328 2.67226 32099 ft 534 kts 45°
2026-05-03 22:23 50.03962 2.71241 31715 ft 526 kts 45°
2026-05-03 22:23 50.06569 2.75220 31704 ft 527 kts 45°
2026-05-03 22:24 50.11772 2.83185 31745 ft 521 kts 45°
2026-05-03 22:24 50.16948 2.91134 31751 ft 527 kts 45°
2026-05-03 22:24 50.19553 2.95145 31069 ft 514 kts 46°
2026-05-03 22:25 50.22074 2.99036 29601 ft 519 kts 46°
2026-05-03 22:25 50.24676 3.03049 28072 ft 521 kts 46°
2026-05-03 22:25 50.27213 3.06973 26637 ft 519 kts 46°
2026-05-03 22:25 50.29767 3.10930 25379 ft 514 kts 45°
2026-05-03 22:26 50.32284 3.14837 24243 ft 506 kts 45°
2026-05-03 22:26 50.34770 3.18700 23267 ft 500 kts 45°
2026-05-03 22:26 50.37224 3.22519 22262 ft 493 kts 45°
2026-05-03 22:26 50.39610 3.26237 21949 ft 476 kts 45°
2026-05-03 22:27 50.41942 3.29877 21703 ft 466 kts 45°
2026-05-03 22:27 50.44218 3.33434 20435 ft 462 kts 45°
2026-05-03 22:27 50.46484 3.36979 19340 ft 456 kts 45°
2026-05-03 22:27 50.48716 3.40476 18342 ft 449 kts 45°
2026-05-03 22:28 50.50917 3.43930 17421 ft 447 kts 45°
2026-05-03 22:28 50.53097 3.47356 16845 ft 441 kts 45°
2026-05-03 22:28 50.55310 3.50546 16286 ft 435 kts 39°
2026-05-03 22:28 50.57776 3.53261 15734 ft 429 kts 36°
2026-05-03 22:29 50.60210 3.55930 15260 ft 423 kts 36°
2026-05-03 22:29 50.62597 3.58552 14818 ft 416 kts 36°
2026-05-03 22:29 50.64953 3.61143 14392 ft 410 kts 36°
2026-05-03 22:29 50.67273 3.63695 14018 ft 403 kts 37°
2026-05-03 22:30 50.69540 3.66196 13697 ft 390 kts 37°
2026-05-03 22:30 50.71725 3.68609 13040 ft 379 kts 37°
2026-05-03 22:30 50.73855 3.70964 12408 ft 369 kts 37°
2026-05-03 22:30 50.75927 3.73265 11828 ft 359 kts 37°
2026-05-03 22:31 50.77935 3.75499 11293 ft 349 kts 37°
2026-05-03 22:31 50.79890 3.77678 10805 ft 339 kts 37°
2026-05-03 22:31 50.81786 3.79790 10374 ft 328 kts 37°
2026-05-03 22:31 50.83622 3.81839 9973 ft 318 kts 37°
2026-05-03 22:32 50.85402 3.83826 9589 ft 308 kts 37°
2026-05-03 22:32 50.87101 3.85782 9223 ft 297 kts 45°
2026-05-03 22:32 50.88291 3.88322 9002 ft 280 kts 66°
2026-05-03 22:32 50.88851 3.90124 8812 ft 272 kts 67°
2026-05-03 22:33 50.90146 3.93474 8406 ft 260 kts 58°
2026-05-03 22:33 50.90819 3.95014 8225 ft 253 kts 59°
2026-05-03 22:33 50.91772 3.97308 7893 ft 246 kts 64°
2026-05-03 22:33 50.92216 3.99852 7505 ft 237 kts 95°
2026-05-03 22:34 50.91977 4.02395 7148 ft 234 kts 111°
2026-05-03 22:34 50.91596 4.04932 6659 ft 243 kts 105°
2026-05-03 22:34 50.91334 4.07708 5648 ft 269 kts 103°
2026-05-03 22:34 50.91016 4.10790 4731 ft 293 kts 104°
2026-05-03 22:35 50.90665 4.13922 4571 ft 284 kts 103°
2026-05-03 22:35 50.90564 4.16992 4379 ft 275 kts 93°
2026-05-03 22:35 50.90584 4.19954 4079 ft 264 kts 94°
2026-05-03 22:35 50.90581 4.22775 3800 ft 254 kts 94°
2026-05-03 22:36 50.90566 4.25522 3692 ft 242 kts 95°
2026-05-03 22:36 50.90545 4.28093 3592 ft 226 kts 95°
2026-05-03 22:36 50.90517 4.30530 3392 ft 216 kts 96°
2026-05-03 22:36 50.90485 4.32852 3213 ft 206 kts 96°
2026-05-03 22:37 50.90445 4.35055 3073 ft 193 kts 98°
2026-05-03 22:37 50.90395 4.37101 2980 ft 182 kts 100°
2026-05-03 22:37 50.90304 4.39085 2980 ft 180 kts 104°
2026-05-03 22:37 50.90068 4.41016 3047 ft 178 kts 114°
2026-05-03 22:38 50.89619 4.42824 3073 ft 176 kts 124°
2026-05-03 22:38 50.89028 4.44520 3052 ft 176 kts 129°
2026-05-03 22:38 50.88388 4.46169 3043 ft 176 kts 128°
2026-05-03 22:38 50.87808 4.47893 3048 ft 179 kts 120°
2026-05-03 22:39 50.87480 4.49805 3022 ft 183 kts 100°
2026-05-03 22:39 50.87645 4.51802 2995 ft 186 kts 73°
2026-05-03 22:39 50.88383 4.53479 3011 ft 188 kts 43°
2026-05-03 22:39 50.89467 4.54615 3125 ft 187 kts 33°
2026-05-03 22:40 50.90568 4.55684 3160 ft 186 kts 36°
2026-05-03 22:40 50.91642 4.56815 3102 ft 185 kts 38°
2026-05-03 22:40 50.92689 4.58006 3057 ft 185 kts 40°
2026-05-03 22:40 50.93707 4.59258 3046 ft 185 kts 43°
2026-05-03 22:41 50.94691 4.60578 3053 ft 185 kts 45°
2026-05-03 22:41 50.95657 4.61933 3054 ft 186 kts 45°
2026-05-03 22:41 50.96634 4.63270 3048 ft 186 kts 43°
2026-05-03 22:41 50.97640 4.64557 3054 ft 186 kts 42°
2026-05-03 22:42 50.98642 4.65851 3063 ft 186 kts 43°
2026-05-03 22:42 50.99634 4.67164 3055 ft 186 kts 44°
2026-05-03 22:42 51.00606 4.68468 3051 ft 185 kts 44°
2026-05-03 22:42 51.01601 4.69814 3036 ft 185 kts 44°
2026-05-03 22:43 51.02568 4.71134 3038 ft 185 kts 44°
2026-05-03 22:43 51.03544 4.72473 3038 ft 186 kts 44°
2026-05-03 22:43 51.04525 4.73832 3023 ft 187 kts 43°
2026-05-03 22:43 51.05520 4.75164 3036 ft 188 kts 40°
2026-05-03 22:44 51.06585 4.76357 3028 ft 187 kts 32°
2026-05-03 22:44 51.07753 4.77250 3032 ft 186 kts 20°
2026-05-03 22:44 51.09009 4.77704 3028 ft 184 kts
2026-05-03 22:44 51.10270 4.77583 3033 ft 180 kts 346°
2026-05-03 22:45 51.11395 4.76819 3035 ft 175 kts 324°
2026-05-03 22:45 51.12208 4.75447 3031 ft 169 kts 298°
2026-05-03 22:45 51.12597 4.73719 3091 ft 165 kts 284°
2026-05-03 22:45 51.12830 4.71916 3104 ft 167 kts 279°
2026-05-03 22:46 51.12948 4.70080 3067 ft 166 kts 273°
2026-05-03 22:46 51.12919 4.68249 3068 ft 165 kts 268°
2026-05-03 22:46 51.12829 4.66472 3101 ft 157 kts 266°
2026-05-03 22:46 51.12731 4.64790 3105 ft 148 kts 266°
2026-05-03 22:47 51.12664 4.63189 3073 ft 144 kts 270°
2026-05-03 22:47 51.12680 4.61604 3036 ft 143 kts 274°
2026-05-03 22:47 51.12441 4.60102 2888 ft 142 kts 234°
2026-05-03 22:47 51.11627 4.59251 2979 ft 141 kts 210°
2026-05-03 22:48 51.10714 4.58659 3118 ft 142 kts 207°
2026-05-03 22:48 51.09782 4.58124 3116 ft 142 kts 205°
2026-05-03 22:48 51.08845 4.57633 3090 ft 142 kts 204°
2026-05-03 22:48 51.07900 4.57176 3070 ft 142 kts 202°
2026-05-03 22:49 51.06951 4.56745 3063 ft 142 kts 202°
2026-05-03 22:49 51.06025 4.56337 3058 ft 141 kts 201°
2026-05-03 22:49 51.05075 4.55927 2954 ft 142 kts 201°
2026-05-03 22:49 51.04126 4.55527 2798 ft 141 kts 201°
2026-05-03 22:50 51.03177 4.55130 2624 ft 141 kts 201°
2026-05-03 22:50 51.02235 4.54739 2451 ft 138 kts 201°
2026-05-03 22:50 51.01331 4.54366 2315 ft 131 kts 201°
2026-05-03 22:50 51.00456 4.54006 2135 ft 129 kts 201°
2026-05-03 22:51 50.99593 4.53648 1965 ft 128 kts 201°
2026-05-03 22:51 50.98739 4.53296 1793 ft 127 kts 201°
2026-05-03 22:51 50.97885 4.52942 1617 ft 127 kts 201°
2026-05-03 22:51 50.97033 4.52588 1445 ft 126 kts 201°
2026-05-03 22:52 50.96181 4.52234 1271 ft 127 kts 200°
2026-05-03 22:52 50.95327 4.51881 1098 ft 127 kts 200°
2026-05-03 22:52 50.94470 4.51525 921 ft 128 kts 199°
2026-05-03 22:52 50.93627 4.51176 734 ft 129 kts 198°
2026-05-03 22:53 50.92746 4.50815 564 ft 130 kts 198°
2026-05-03 22:53 50.91871 4.50452 383 ft 131 kts 195°
2026-05-03 22:53 50.90992 4.50086 200 ft 130 kts 196°
2026-05-03 22:53 50.90450 4.49862 189 ft 27 kts 190°
2026-05-03 22:54 50.90257 4.49786 187 ft 18 kts 183°
2026-05-03 22:54 50.90224 4.49767 187 ft 4 kts 199°
2026-05-03 22:54 50.90164 4.49728 185 ft 14 kts 204°
2026-05-03 22:54 50.90140 4.49709 187 ft 3 kts 211°
2026-05-03 22:55 50.90104 4.49647 188 ft 11 kts 242°
2026-05-03 22:55 50.90073 4.49523 189 ft 13 kts 249°
2026-05-03 22:55 50.90017 4.49423 189 ft 12 kts 195°
2026-05-03 22:55 50.89927 4.49381 185 ft 15 kts 197°
2026-05-03 22:56 50.89821 4.49329 185 ft 17 kts 197°
2026-05-03 22:56 50.89696 4.49282 185 ft 19 kts 197°
2026-05-03 22:56 50.89595 4.49224 185 ft 9 kts 212°
2026-05-03 22:56 50.89550 4.49171 186 ft 6 kts 195°
2026-05-03 22:57 50.89502 4.49159 187 ft 8 kts 187°
2026-05-03 22:57 50.89438 4.49148 193 ft 10 kts 186°
2026-05-03 22:57 50.89364 4.49122 186 ft 12 kts 195°
2026-05-03 22:57 50.89324 4.49037 196 ft 10 kts 253°
2026-05-03 22:58 50.89304 4.48916 187 ft 12 kts 256°
2026-05-03 22:58 50.89279 4.48779 185 ft 13 kts 261°
2026-05-03 22:58 50.89304 4.48630 198 ft 15 kts 288°